SL-3 R/B, 5918

Orbit data source: Space-Track

SL-3 R/B, 5918 is space debris in LEO originally from a launch on Thu, 30 Mar 1972 UTC launched from the Plesetsk Missile And Space Complex (PKMTR). Debris objects in space refer to the collection of defunct objects orbiting the Earth. Examples of debris include non-operational satellites, rocket bodies, and fragments generated from explosions, collisions, or faulty payload assembly.

Loading next visibility...
Identifier
5918, 1972-022B
Orbit
LEO
Country
Flag of CISCIS
Related business
Manufacturer
Progress
Mission
Spacecraft
Bus & Motor
BLOK-E, Unknown motor
Mass
1,440 kg wet, 1,440 kg dry
Launch date (UTC)
1972-03-30 (53 years ago)
Launch vehicle
Unknown
Launch site
Plesetsk Missile And Space Complex (PKMTR)
Object type
Payload
Rocket body
Debris
Shape & HBR
Cyl, 1.9 m
Radar Cross Section
10.414 m², Large (>1 m²)

Expand to show TLE details & history
Last TLE update: 20 hours ago

TLE from 20 hours ago
0 SL-3 R/B
1 05918U 72022B   25260.09999224  .00000027  00000-0  82507-5 0  9991
2 05918  81.2349 289.8478 0058773 135.8502 224.7380 14.06255527741232
Epoch: 2025-09-17T02:23Z
TLE epoch observation values (Epoch: 2025-09-17T02:23:59.329Z)
Latitude
-0.00007°
Longitude
-102.43021°
Altitude
905.506 km
Speed
7.384 km/s
True Right ascension
19h 19m 23s
True Declination
0° 00' 00"
Sunlit
Object was in daylight at epoch
Visualization orbit readout
Latitude
Unknown
Longitude
Unknown
Altitude
Unknown
Speed
Unknown
Apparent Right ascension
Unknown
Apparent Declination
Unknown
Sunlit
N/A
Visualization observer readout
Local Sidereal Time
15:01:33
Azimuth
Unknown
Elevation
Unknown
Doppler factor
Unknown
Orbital elements
Apogee altitude
911.989 km
Perigee altitude
826.797 km
Semi-major axis
7,247.53 km
Eccentricity
0.00588
Inclination
81.2349°
RAAN
289.8478°
Arg. of periapsis
135.8502°
True anomaly
224.26642°
Mean anomaly
224.738°
Eccentric anomaly
224.50196°
Mean motion
3.51769 °/min
Orbital period
102.34 mins
BSTAR
0.0000082507
Loading maneuver chart data...
Computing Atmospheric mass density...
Loading historical data...
Loading historical data...
Loading historical data...
Loading historical data...
Loading historical data...
Loading historical data...
Loading historical data...

Documentation

Showing up to 5 results
|